Regional Weather Roundup
Issued by NWS Boston, MA

Current Version | Previous Version | Text Only | Print | Product List | Glossary Off
Versions: 1 2 3 4 5 6 7 8 9 10 11 12 13 14 15 16 17 18 19 20 21 22 23 24 25 26 27 28 29 30 31 32 33 34 35 36 37 38 39 40 41 42 43 44 45 46 47 48 49 50
000 ASUS41 KBOX 210610 RWRBOX REGIONAL WEATHER ROUNDUP NATIONAL WEATHER SERVICE BOSTON/NORTON MA 200 AM EDT SUN OCT 21 2018 NOTE: "FAIR" INDICATES FEW OR NO CLOUDS BELOW 12,000 FEET WITH NO SIGNIFICANT WEATHER AND/OR OBSTRUCTIONS TO VISIBILITY. MAZALL-210700- EASTERN MASSACHUSETTS CITY SKY/WX TMP DP RH WIND PRES REMARKS BOSTON CLOUDY 52 42 69 W8 29.57F 6HR MIN TEMP: 49; 6HR MAX TEMP: 57; BEVERLY CLOUDY 47 42 83 NW3 29.57S LAWRENCE CLOUDY 48 42 80 CALM 29.60R BEDFORD CLOUDY 46 42 86 CALM 29.56F BLUE HILL N/A 47 41 80 NW14 29.55F NORWOOD CLOUDY 44 42 93 CALM 29.56F MARSHFIELD CLOUDY 46 45 93 W3 29.56F PLYMOUTH FAIR 43 41 93 CALM 29.56F TAUNTON CLOUDY 44 41 89 CALM 29.57F NEW BEDFORD FAIR 41 41 100 W3 29.56F $$ MAZALL-210700- CAPE COD AND THE ISLANDS CITY SKY/WX TMP DP RH WIND PRES REMARKS FALMOUTH NOT AVBL HYANNIS FAIR 41 40 96 N3 29.55F CHATHAM FAIR 46 42 86 CALM 29.57F PROVINCETOWN FAIR 52 46 80 W8 29.57F NANTUCKET FAIR 49 48 97 NW3 29.56F MARTHAS VNYRD FAIR 39 38 96 CALM 29.55F $$ MAZALL-210700- CENTRAL AND WESTERN MASSACHUSETTS CITY SKY/WX TMP DP RH WIND PRES REMARKS WORCESTER CLOUDY 45 41 86 NW8 29.56F 6HR MIN TEMP: 44; 6HR MAX TEMP: 47; FITCHBURG CLOUDY 47 42 83 CALM 29.58F ORANGE CLOUDY 46 43 89 NW3 29.59F SPRINGFIELD CLOUDY 44 43 97 NW3 29.59R WESTFIELD LGT RAIN 47 43 86 N9 29.60R NORTH ADAMS CLOUDY 45 38 76 W5 29.62R PITTSFIELD CLOUDY 44 36 73 W5 29.60F $$ RIZALL-210700- RHODE ISLAND CITY SKY/WX TMP DP RH WIND PRES REMARKS PROVIDENCE FAIR 47 44 90 NW6 29.57F 6HR MIN TEMP: 47; 6HR MAX TEMP: 54; NEWPORT FAIR 46 45 96 CALM 29.56F BLOCK ISLAND FAIR 50 47 89 W3 29.56F SMITHFIELD CLOUDY 48 43 82 VRB3 29.57F WESTERLY FAIR 45 45 100 N3 29.57F $$ CTZALL-210700- CONNECTICUT CITY SKY/WX TMP DP RH WIND PRES REMARKS BRADLEY INTL LGT RAIN 47 44 90 W7 29.60S 6HR MIN TEMP: 45; 6HR MAX TEMP: 49; 6HR PCP: 0.01; HARTFORD RAIN 49 45 86 NW3 29.60R FOG BRIDGEPORT CLOUDY 50 45 83 NW5 29.60S DANBURY LGT RAIN 46 42 86 N12 29.62S GROTON MOCLDY 46 44 93 N6 29.56F NEW HAVEN CLOUDY 50 44 80 N7 29.58F CHESTER MOCLDY 48 45 87 NW5 29.58S MERIDEN CLOUDY 48 45 89 N3 29.60F WILLIMANTIC MOCLDY 45 45 100 CALM 29.58F OXFORD CLOUDY 46 44 93 N8 29.60S $$ MEZ002-015-021-024-NHZ003-005-008-011-012-014-VTZ005-008-210700- NORTHERN NEW ENGLAND CITY SKY/WX TMP DP RH WIND PRES REMARKS PORTLAND ME FAIR 40 35 83 CALM 29.58R 6HR MIN TEMP: 37; 6HR MAX TEMP: 52; BANGOR ME FAIR 34 33 96 CALM 29.57S CONCORD NH CLOUDY 37 35 92 CALM 29.59R MANCHESTER NH CLOUDY 44 39 82 CALM 29.57R NASHUA NH CLOUDY 45 42 89 NW5 29.59R PORTSMOUTH NH MOCLDY 43 40 89 W3 29.56R JAFFREY NH CLOUDY 43 42 97 CALM 29.58F KEENE NH CLOUDY 40 39 97 CALM 29.60S BURLINGTON VT CLOUDY 44 30 57 N13G20 29.68R MT. WASHINGTON FOG 19 19 100 NW38 N/A VSB 1/8 WCI -1 $$ NYZ052-076-210700- EASTERN NEW YORK CITY SKY/WX TMP DP RH WIND PRES REMARKS ALBANY CLOUDY 46 39 76 W9 29.65R 6HR MIN TEMP: 46; 6HR MAX TEMP: 50; 6HR PCP: TRACE; NEW YORK CITY FAIR 52 44 74 NW10 29.60F 6HR MIN TEMP: 52; 6HR MAX TEMP: 62; 6HR PCP: TRACE; $$ ANZALL-210700- MARINE OBSERVATIONS STATION/POSITION TIME TEMP WIND PRES VSBY WAVE AIR SEA DIR/SP/G HT/PER (UTC) (F) (DEG/KT/KT) (MB) (MI) (FT/S) BOSTON BUOY 0550 53 57 280/ 10/ 12 1000.8S 1/ 2 BUZZARDS BAY 0500 58 240/ 8/ 8 1002.2F NANTUCKET SOUND 0550 58 59 260/ 6/ 8 1000.8F 1 MASS BAY-STELLWA 0504 53 55 270/ 10/ 14 999.9F 1 7/8 1/ 5 ISLE OF SHOALS 0500 51 260/ 11/ 11 1000.4F S OF BLOCK IS 0543 62 N/A 7/ 8 $$ ......................KEY......................... SKY/WX - SKY CONDITION/PRESENT WEATHER TMP - TEMPERATURE IN FAHRENHEIT DWPT - DEWPOINT IN FAHRENHEIT RH - RELATIVE HUMIDITY IN PERCENT WIND - DIRECTION AND SPEED IN MPH PRES - MEAN SEA LEVEL PRESSURE IN INCHES OF HG WCI - WIND CHILL INDEX VSB - VISIBILITY IN MILES HX - HEAT INDEX TC - TEMPERATURE IN CELSIUS VRB - VARIABLE WIND DIRECTION N/A - NOT AVAILABLE

USA.gov is the U.S. government's official web portal to all federal, state and local government web resources and services.